Regional Weather Roundup
Issued by NWS

Home | Current Version | Previous Version | Text Only | Print | Product List | Glossary Off
Versions: 1 2 3 4 5 6 7 8 9 10 11 12 13 14 15 16 17 18 19 20 21 22 23 24 25 26 27 28 29 30 31 32 33 34 35 36 37 38 39 40 41 42 43 44 45 46 47 48 49 50

000
ASUS43 KLMK 212310
RWRKY
KENTUCKY REGIONAL WEATHER ROUNDUP
NATIONAL WEATHER SERVICE LOUISVILLE KY
600 PM EST SAT JAN 21 2017

NOTE "FAIR" INDICATES FEW OR NO CLOUDS BELOW 12,000 FEET
WITH NO SIGNIFICANT WEATHER AND/OR OBSTRUCTIONS TO VISIBILITY.

KYZ001>023-026-027-061>063-070>075-220000-
WESTERN AND SOUTH CENTRAL KENTUCKY

CITY           SKY/WX    TMP DP  RH WIND       PRES   REMARKS
PADUCAH        PTCLDY    66  50  56 S5        29.55S
HENDERSON      MOCLDY    63  48  59 S7        29.56R
OWENSBORO      CLOUDY    64  52  64 SE6       29.58F
HOPKINSVILLE   CLOUDY    66  49  53 SE5       29.57F
BOWLING GREEN  CLOUDY    62  48  60 SE5       29.62S
GLASGOW        PTCLDY    60  49  67 E3        29.62F
$$

KYZ024-025-028>034-038-045-046-053-220000-
NORTH CENTRAL KENTUCKY

CITY           SKY/WX    TMP DP  RH WIND       PRES   REMARKS
LOUISVILLE/SDF MOCLDY    64  49  57 S6        29.61R
LOUISVILLE/LOU PTCLDY    65  51  60 S3        29.62S
FORT KNOX      PTCLDY    60  50  68 S9        29.61R
$$

KYZ035>037-039>044-047>052-055>060-089>105-220000-
NORTHEAST KENTUCKY

CITY           SKY/WX    TMP DP  RH WIND       PRES   REMARKS
LEXINGTON      CLEAR     60  50  69 S5        29.66R
COVINGTON      CLOUDY    60  54  80 S8        29.62F
FRANKFORT      MOCLDY    62  51  67 SE6       29.63R
$$

KYZ054-064>069-076>088-106>120-220000-
SOUTHEAST KENTUCKY

CITY           SKY/WX    TMP DP  RH WIND       PRES   REMARKS
JACKSON        CLOUDY    59  51  75 CALM      29.67S
LONDON         CLOUDY    58  52  80 CALM      29.66S
SOMERSET       PTCLDY    55  50  82 CALM      29.66F
MIDDLESBORO    CLOUDY    55  53  91 CALM      29.67S
MONTICELLO     CLEAR     57  50  77 VRB7      29.66F
$$




USA.gov is the U.S. government's official web portal to all federal, state and local government web resources and services.